Location: ??
(35.3149°N, 139.6204°E)
Time: 10:17:16
(UTC+00:00)

Cosmos 1818 - Pass Details

Date: 03 August 2024
Orbit: 770 x 801 km, 65.0° (Epoch: 09 September)

Event Time Altitude Azimuth Distance (km) Brightness Sun altitude
Exits shadow 18:44:46 10° 198° (SSW) 2,316 5.5 -13.1°
Maximum altitude 18:50:03 69° 116° (ESE) 849 3.8 -12.2°
Drops below altitude 10° 18:55:28 10° 34° (NE) 2,373 7.2 -11.3°
Sets 18:57:55 0° 32° (NNE) 3,309 8.0 -10.8°
